Location: Potawatomi Wildlife Park
(41.2308°N, 86.1050°W)
Time: 09:57:19
(UTC-04:00)

Daily predictions for brighter satellites

Satellite Brightness Start Highest point End
(mag) Time Altitude Azimuth Time Altitude Azimuth Time Altitude Azimuth
Cosmos 2322 Rocket 2.2 20:46:44 10° S 20:52:22 64° ESE 20:58:01 10° NNE
Lacrosse 5 2.0 20:48:00 10° SSW 20:52:55 52° SE 20:57:51 10° NE
Atlas Centaur 2 4.0 20:46:49 10° WSW 20:54:20 35° SSW 21:01:18 10° SE
ATLAS 2AS CENTAUR R/B 3.2 20:51:26 10° S 20:58:46 53° ESE 21:06:34 10° NE
Cosmos 2026 Rocket 4.4 20:54:35 10° SSW 21:00:56 75° W 21:07:20 10° N
Helios 1B rocket 4.2 21:03:46 10° ENE 21:05:42 13° E 21:07:37 10° ESE
SL-16 R/B 2.2 21:00:19 10° SSW 21:05:59 83° ESE 21:11:41 10° NNE
NOSS 2-3 (E) 3.8 21:04:38 10° SSW 21:09:17 82° ESE 21:14:41 10° NE
Meteor 1-11 Rocket 3.8 21:08:06 10° S 21:13:52 72° E 21:19:33 10° NNE
Delta 2 Rocket 4.1 21:15:53 10° SW 21:19:21 33° SSE 21:22:33 14° ESE
Cosmos 2322 4.3 21:14:32 10° SSE 21:19:34 34° ESE 21:24:38 10° NE
SJ-6B 4.4 21:15:55 10° SSW 21:19:45 39° W 21:23:38 10° NNW
SeaSat 1 3.0 21:17:52 10° NE 21:22:25 36° ESE 21:26:56 10° S
Cosmos 2360 Rocket 2.4 21:18:22 10° S 21:23:42 46° ESE 21:29:03 10° NE
Abrixas rocket 4.0 21:21:43 10° NW 21:24:30 25° N 21:27:18 10° ENE
Meteor 1-23 Rocket 4.4 21:20:01 10° N 21:25:29 53° ENE 21:30:56 10° SSE
Cosmos 1331 Rocket 4.4 21:22:00 10° S 21:26:48 39° ESE 21:31:38 10° NE
Okean 2 4.5 21:23:33 10° NNE 21:27:01 26° ENE 21:29:22 16° ESE
Cosmos 1850 Rocket 4.2 21:23:11 10° NNW 21:28:32 78° WSW 21:33:47 10° SSE
COSMOS 2428 3.7 21:28:18 10° SSE 21:32:47 24° ESE 21:37:15 10° NE
Resurs 1-3 4.0 21:33:45 10° S 21:38:05 64° WSW 21:42:27 10° NNW
Cosmos 220 Rocket 3.9 21:34:01 10° NNW 21:38:20 75° ENE 21:42:04 14° SSE
CZ-4B DEB 4.0 21:42:43 20° ENE 21:42:53 21° ENE 21:45:07 10° NNE
Cosmos 883 Rocket 4.4 21:38:29 10° N 21:44:37 73° E 21:50:46 10° SSE
Meteor 1-5 Rocket 4.0 21:40:15 10° S 21:45:33 78° E 21:50:52 10° NNE
Cosmos 2333 Rocket 3.9 21:47:11 13° E 21:47:11 13° E 21:48:42 10° ENE
Cosmos 1025 Rocket 3.1 21:43:42 10° N 21:47:53 53° E 21:50:37 20° SSE
Cosmos 1607 4.2 21:42:16 10° NW 21:48:44 75° WSW 21:54:25 14° SSE
Cosmos 1300 Rocket 4.0 21:45:34 10° SSW 21:49:49 62° W 21:54:07 10° N
USA 186 3.3 21:47:24 10° SSW 21:50:34 38° W 21:53:45 10° NNW
Cosmos 1536 3.5 21:46:46 10° SSW 21:50:47 59° W 21:54:48 10° N
Okean 1 Rocket 3.0 21:48:33 10° S 21:52:54 87° W 21:57:19 10° N
Cosmos 1939 Rocket 2.8 21:51:36 13° S 21:55:02 83° WSW 21:58:58 10° NNW
USA 238 DEB 3.9 21:49:24 10° NNW 21:56:28 64° NE 22:01:04 23° SE
USA 238 3.9 21:49:30 10° NNW 21:56:34 64° NE 22:01:09 23° SE
Spot 2 Rocket 4.4 21:51:42 10° S 21:56:37 48° W 22:01:33 10° NNW
Meteor 2-4 Rocket 4.3 21:51:25 10° NNW 21:56:55 59° W 22:02:33 10° S
Tiangong 1 2.4 21:55:18 10° W 21:57:33 22° SSW 21:58:00 21° SSW
Helios 1A 2.9 22:01:07 25° SSE 22:03:34 75° ENE 22:07:49 10° N
ATLAS 3B R/B 2.6 21:59:18 10° NNW 22:06:04 81° NE 22:09:58 26° SE
Cosmos 1238 Rocket 4.3 22:00:36 10° N 22:07:03 49° ENE 22:10:05 28° SE
SL-8 R/B 3.7 22:02:19 10° WNW 22:07:07 76° NNE 22:09:13 33° ESE
Cosmos 1818 3.7 22:02:22 10° S 22:07:31 47° ESE 22:12:44 10° NE
ERS-1 Rocket 3.2 22:06:57 30° SE 22:09:06 50° ENE 22:13:57 10° N
YAOGAN 6 2.7 22:10:08 27° S 22:11:53 69° W 22:15:24 10° NNW
Cosmos 1066 Rocket 4.5 22:08:23 10° N 22:13:37 46° ENE 22:15:33 33° SE
Okean 1-7 Rocket 3.6 22:09:43 10° N 22:14:14 82° W 22:16:59 24° S
ARGOS 3.6 22:12:31 31° ESE 22:14:21 42° ENE 22:19:23 10° N
Molniya-1 4.3 22:12:38 10° NNW 22:15:25 45° NE 22:15:39 44° ENE
USA 267 4.4 22:10:52 12° S 22:16:17 35° SW 22:22:12 10° WNW
Resurs 01 Rocket 4.0 22:15:55 10° SW 22:19:20 21° W 22:22:45 10° NW
BREEZE-M DEB (TANK) 3.5 22:18:08 10° WNW 22:20:10 20° NNW 22:20:55 17° N
Meteor 1-29 2.7 22:17:10 10° NNE 22:20:35 74° ESE 22:20:46 71° SE
Abrixas 4.1 22:18:41 10° WSW 22:19:47 22° WSW 22:19:47 22° WSW
BREEZE-M DEB (TANK) 3.9 22:21:24 10° W 22:24:49 56° NNW 22:36:06 10° ENE
Cosmos 1743 4.3 22:29:25 22° NE 22:29:25 22° NE 22:31:12 10° NNE
Cosmos 2263 Rocket 3.9 22:23:56 10° NW 22:28:47 29° WSW 22:33:35 10° SSW
Aureole 3 Rocket 4.1 22:21:03 10° N 22:29:05 69° ENE 22:31:40 37° SSE
USA 245 3.9 22:31:48 48° E 22:32:07 49° ENE 22:36:01 10° N
SPOT 5 3.2 22:31:51 43° E 22:32:18 45° ENE 22:36:41 10° N
NOSS 3-2 (C) 4.4 22:26:02 10° NNW 22:33:19 51° NE 22:36:46 33° ESE
Cosmos 2315 Rocket 4.4 22:28:42 10° NNW 22:34:52 62° W 22:39:59 16° S
Cosmos 1844 Rocket 2.7 22:29:35 10° NNW 22:35:16 68° ENE 22:36:49 47° SE
Lacrosse 5 3.6 22:31:32 10° W 22:36:05 32° NNW 22:40:40 10° NNE
Cosmos 2278 Rocket 3.3 22:32:17 10° N 22:37:13 29° NE 22:38:10 28° ENE
MetOp-B 4.0 22:37:44 45° SSE 22:39:28 83° ENE 22:44:51 10° NNW
Helios 1B rocket 3.3 22:37:17 10° N 22:41:16 49° WNW 22:44:31 15° SW
Atlas Centaur 2 4.3 22:37:26 10° WSW 22:42:58 20° SSW 22:45:00 18° S
Cosmos 1892 Rocket 3.5 22:40:55 10° N 22:45:21 80° W 22:45:55 66° SSW
H-2A R/B 2.1 22:46:54 53° E 22:47:12 54° ENE 22:52:01 10° N
Cosmos 1302 Rocket 4.3 22:43:08 10° SSW 22:48:24 67° WNW 22:53:40 10° NNE
ATLAS 2AS CENTAUR R/B 4.2 22:42:41 10° WSW 22:50:02 42° NW 22:57:43 10° NNE
Cosmos 2219 Rocket 2.1 22:50:02 56° SSE 22:50:59 65° ESE 22:56:35 10° NNE
Cosmos 1745 Rocket 3.8 22:50:53 50° SSE 22:52:27 69° E 22:58:34 10° NNE
CENTAUR R/B 4.1 22:46:11 10° NNW 22:53:05 34° NE 22:56:35 25° E
Cosmos 1486 Rocket 4.2 22:49:42 10° NNW 22:54:54 65° WSW 22:56:04 50° SSW
Cosmos 1544 Rocket 3.7 22:57:20 62° SW 22:57:52 70° W 23:02:19 10° N
SeaSat 1 4.3 22:55:31 10° N 22:59:50 31° NW 23:04:08 10° WSW
NOSS 3-4 (A) 3.3 22:56:26 24° SSW 23:00:22 70° ESE 23:06:47 10° NE
NOSS 3-4 (C) 3.3 22:57:10 29° SSW 23:00:28 69° ESE 23:06:53 10° NE
Cosmos 405 4.5 23:01:07 33° W 23:01:30 34° WNW 23:04:49 10° N
Abrixas rocket 4.1 22:58:17 10° WNW 23:00:06 30° NW 23:00:06 30° NW
Terra 3.0 23:04:46 31° NE 23:04:46 31° NE 23:08:09 10° N
Cosmos 2360 Rocket 4.2 23:03:10 10° WSW 23:07:54 27° NW 23:12:38 10° N
Cosmos 1975 4.1 23:09:21 36° W 23:09:52 37° WNW 23:13:37 10° N
Cosmos 1455 Rocket 3.5 23:09:49 58° W 23:09:59 59° W 23:14:25 10° N
Cosmos 1386 Rocket 4.3 23:11:06 67° SSE 23:11:52 77° E 23:18:11 10° N
COSMOS 2428 3.6 23:11:08 10° SW 23:16:40 49° WNW 23:22:14 10° NNE
GP-B 4.4 23:13:44 10° N 23:16:18 32° NNE 23:16:18 32° NNE
Cosmos 1844 3.7 23:14:43 10° NNW 23:20:23 69° WSW 23:20:44 67° SW
Cosmos 2333 Rocket 2.2 23:29:06 75° W 23:29:20 77° WNW 23:35:01 10° NNE
Cosmos 724 4.4 23:24:22 10° NW 23:30:09 63° WSW 23:30:09 63° WSW
BREEZE M DEB (TANK) 4.3 23:29:14 10° WSW 23:32:14 26° W 23:32:14 26° W
Cosmos 1354 Rocket 4.5 23:29:12 10° NNW 23:34:09 56° W 23:34:09 56° W
Cosmos 2237 Rocket 2.7 23:42:11 52° NNE 23:42:11 52° NNE 23:46:24 10° NNE
Nadezhda 1 Rocket 4.4 23:35:39 10° NNW 23:41:50 57° W 23:42:45 52° SW
NOSS 3-2 (A) 4.3 23:36:29 10° NW 23:43:55 57° WSW 23:45:10 52° SSW
Cosmos 1980 4.0 23:48:45 62° N 23:48:45 62° N 23:53:34 10° NNE
SPOT 1/Viking Rocket 4.4 23:49:27 43° W 23:49:27 43° W 23:54:04 10° NNW
H-2A R/B 4.0 23:57:37 26° N 23:57:37 26° N 23:59:38 10° N
ATLAS 3B R/B 4.4 23:51:43 10° WNW 23:55:51 18° WSW 23:57:14 17° WSW
